TimeCDT,TemperatureF,Dew PointF,Humidity,Sea Level PressureIn,VisibilityMPH,Wind Direction,Wind SpeedMPH,Gust SpeedMPH,PrecipitationIn,Events,Conditions,WindDirDegrees,DateUTC
12:15 AM,70.9,67.1,88,30.01,10.0,SE,3.5,-,N/A,,Clear,130,2013-07-26 05:15:00
12:35 AM,70.7,67.3,89,30.01,10.0,SE,3.5,-,N/A,,Clear,130,2013-07-26 05:35:00
12:55 AM,70.0,67.1,91,30.01,10.0,Calm,Calm,-,N/A,,Clear,0,2013-07-26 05:55:00
1:15 AM,69.1,67.1,93,30.01,10.0,Calm,Calm,-,N/A,,Clear,0,2013-07-26 06:15:00
1:35 AM,69.4,67.5,93,30.00,10.0,Calm,Calm,-,N/A,,Clear,0,2013-07-26 06:35:00
1:55 AM,68.2,66.7,95,30.00,5.0,Calm,Calm,-,N/A,,Clear,0,2013-07-26 06:55:00
2:15 AM,68.2,66.7,95,30.00,10.0,Calm,Calm,-,N/A,,Scattered Clouds,0,2013-07-26 07:15:00
2:35 AM,68.5,67.3,96,29.99,10.0,Calm,Calm,-,N/A,,Overcast,0,2013-07-26 07:35:00
2:55 AM,68.9,68.0,97,29.99,10.0,Calm,Calm,-,N/A,,Overcast,0,2013-07-26 07:55:00
3:15 AM,69.3,68.0,96,29.99,10.0,Calm,Calm,-,N/A,,Overcast,0,2013-07-26 08:15:00
3:35 AM,69.8,68.0,94,29.99,10.0,Calm,Calm,-,N/A,,Scattered Clouds,0,2013-07-26 08:35:00
3:55 AM,68.9,67.6,96,29.99,7.0,Calm,Calm,-,N/A,,Clear,0,2013-07-26 08:55:00
4:15 AM,69.1,68.0,96,29.98,10.0,Calm,Calm,-,N/A,,Clear,0,2013-07-26 09:15:00
4:35 AM,68.9,67.5,95,29.99,7.0,Calm,Calm,-,N/A,,Clear,0,2013-07-26 09:35:00
4:55 AM,68.5,67.1,95,29.99,7.0,NW,3.5,-,N/A,,Clear,310,2013-07-26 09:55:00
5:15 AM,68.4,66.7,95,29.99,7.0,WNW,3.5,-,N/A,,Clear,300,2013-07-26 10:15:00
5:35 AM,67.8,66.4,95,30.00,5.0,WNW,3.5,-,N/A,,Clear,300,2013-07-26 10:35:00
5:55 AM,67.6,66.6,96,30.01,5.0,Calm,Calm,-,N/A,,Clear,0,2013-07-26 10:55:00
6:15 AM,67.5,66.4,96,30.01,7.0,NW,5.8,-,N/A,,Clear,310,2013-07-26 11:15:00
6:35 AM,67.6,65.3,92,30.02,10.0,NW,5.8,-,N/A,,Clear,320,2013-07-26 11:35:00
6:55 AM,68.0,64.6,89,30.03,10.0,NW,5.8,-,N/A,,Clear,310,2013-07-26 11:55:00
7:15 AM,68.2,64.4,88,30.03,10.0,NW,4.6,-,N/A,,Clear,310,2013-07-26 12:15:00
7:35 AM,68.7,64.4,86,30.03,10.0,NW,6.9,-,N/A,,Clear,320,2013-07-26 12:35:00
7:55 AM,69.4,64.4,84,30.04,4.0,NNW,8.1,-,N/A,,Haze,330,2013-07-26 12:55:00
8:15 AM,70.0,64.4,82,30.05,10.0,NNW,12.7,17.3,N/A,,Clear,340,2013-07-26 13:15:00
8:35 AM,70.0,64.4,82,30.06,10.0,NNW,6.9,-,N/A,,Clear,340,2013-07-26 13:35:00
8:55 AM,70.2,61.7,74,30.07,10.0,North,9.2,16.1,N/A,,Clear,350,2013-07-26 13:55:00
9:15 AM,71.6,60.3,67,30.08,10.0,North,8.1,16.1,N/A,,Clear,350,2013-07-26 14:15:00
9:35 AM,71.8,61.2,69,30.09,7.0,NNW,10.4,17.3,N/A,,Clear,330,2013-07-26 14:35:00
9:55 AM,72.9,60.8,66,30.09,10.0,NNW,5.8,-,N/A,,Clear,340,2013-07-26 14:55:00
10:15 AM,72.3,59.4,64,30.10,1.0,NW,10.4,-,N/A,,Haze,320,2013-07-26 15:15:00
10:35 AM,73.4,56.3,55,30.11,10.0,North,10.4,17.3,N/A,,Clear,360,2013-07-26 15:35:00
10:55 AM,73.2,57.0,57,30.11,10.0,NNW,9.2,17.3,N/A,,Clear,330,2013-07-26 15:55:00
11:15 AM,73.4,57.9,58,30.11,0.8,NNW,10.4,17.3,N/A,,Haze,330,2013-07-26 16:15:00
11:35 AM,75.0,55.4,50,30.11,10.0,NW,15.0,20.7,N/A,,Clear,310,2013-07-26 16:35:00
11:55 AM,75.0,57.0,53,30.11,10.0,NW,15.0,18.4,N/A,,Clear,310,2013-07-26 16:55:00
12:15 PM,74.8,55.0,50,30.11,10.0,NNW,6.9,18.4,N/A,,Clear,330,2013-07-26 17:15:00
12:35 PM,75.0,49.5,40,30.11,10.0,NW,18.4,-,N/A,,Clear,310,2013-07-26 17:35:00
12:55 PM,75.4,52.9,45,30.11,10.0,North,8.1,16.1,N/A,,Clear,360,2013-07-26 17:55:00
1:15 PM,75.4,50.5,42,30.11,10.0,North,12.7,18.4,N/A,,Clear,350,2013-07-26 18:15:00
1:35 PM,76.6,50.4,40,30.10,10.0,NW,15.0,20.7,N/A,,Clear,320,2013-07-26 18:35:00
1:55 PM,75.9,53.4,45,30.10,10.0,NNW,11.5,17.3,N/A,,Clear,330,2013-07-26 18:55:00
2:15 PM,76.5,53.4,45,30.09,10.0,North,8.1,16.1,N/A,,Clear,350,2013-07-26 19:15:00
2:35 PM,76.1,52.0,43,30.09,10.0,NNW,11.5,-,N/A,,Clear,340,2013-07-26 19:35:00
2:55 PM,77.2,53.8,44,30.09,10.0,NW,17.3,28.8,N/A,,Clear,310,2013-07-26 19:55:00
3:15 PM,76.8,53.2,44,30.09,10.0,NNW,11.5,19.6,N/A,,Clear,340,2013-07-26 20:15:00
3:35 PM,77.2,51.8,41,30.09,10.0,NW,15.0,21.9,N/A,,Clear,320,2013-07-26 20:35:00
3:55 PM,76.8,51.3,41,30.08,10.0,NW,13.8,20.7,N/A,,Clear,320,2013-07-26 20:55:00
4:15 PM,76.8,53.2,44,30.09,10.0,North,9.2,17.3,N/A,,Clear,360,2013-07-26 21:15:00
4:35 PM,75.6,52.3,44,30.09,10.0,NNW,10.4,19.6,N/A,,Clear,330,2013-07-26 21:35:00
4:55 PM,75.2,53.4,47,30.10,10.0,North,6.9,17.3,N/A,,Clear,360,2013-07-26 21:55:00
5:15 PM,74.3,52.7,47,30.09,10.0,North,9.2,20.7,N/A,,Clear,350,2013-07-26 22:15:00
5:35 PM,74.5,52.5,46,30.10,10.0,NW,13.8,18.4,N/A,,Clear,320,2013-07-26 22:35:00
5:55 PM,73.9,52.3,47,30.10,10.0,North,12.7,18.4,N/A,,Clear,350,2013-07-26 22:55:00
6:15 PM,73.4,52.0,47,30.10,10.0,NNW,11.5,19.6,N/A,,Clear,340,2013-07-26 23:15:00
6:35 PM,72.9,52.2,48,30.10,10.0,North,9.2,20.7,N/A,,Clear,350,2013-07-26 23:35:00
6:55 PM,72.3,52.5,50,30.10,10.0,North,9.2,17.3,N/A,,Clear,360,2013-07-26 23:55:00
7:15 PM,72.0,51.4,48,30.10,10.0,NNW,11.5,17.3,N/A,,Clear,340,2013-07-27 00:15:00
7:35 PM,71.6,51.8,50,30.10,10.0,North,5.8,-,N/A,,Clear,360,2013-07-27 00:35:00
7:55 PM,71.2,51.8,50,30.11,10.0,North,5.8,-,N/A,,Clear,360,2013-07-27 00:55:00
8:15 PM,70.7,51.4,50,30.10,10.0,North,4.6,-,N/A,,Clear,350,2013-07-27 01:15:00
8:35 PM,70.2,51.3,51,30.10,10.0,NNW,5.8,-,N/A,,Clear,340,2013-07-27 01:35:00
8:55 PM,69.4,51.8,53,30.10,10.0,North,6.9,-,N/A,,Clear,350,2013-07-27 01:55:00
9:15 PM,68.9,51.8,54,30.10,10.0,NW,3.5,-,N/A,,Clear,320,2013-07-27 02:15:00
9:35 PM,68.9,52.2,55,30.10,10.0,NNW,3.5,-,N/A,,Clear,330,2013-07-27 02:35:00
9:55 PM,66.4,52.5,61,30.11,10.0,NNW,4.6,-,N/A,,Scattered Clouds,330,2013-07-27 02:55:00
10:15 PM,68.0,52.7,58,30.11,10.0,Calm,Calm,-,N/A,,Mostly Cloudy,0,2013-07-27 03:15:00
10:35 PM,66.6,53.1,62,30.12,10.0,WNW,5.8,-,N/A,,Scattered Clouds,300,2013-07-27 03:35:00
10:55 PM,65.1,53.8,67,30.11,10.0,NW,3.5,-,N/A,,Scattered Clouds,310,2013-07-27 03:55:00
11:15 PM,65.5,53.6,65,30.11,10.0,Calm,Calm,-,N/A,,Scattered Clouds,0,2013-07-27 04:15:00
11:35 PM,65.3,53.6,66,30.11,10.0,Calm,Calm,-,N/A,,Clear,0,2013-07-27 04:35:00
11:55 PM,63.1,53.8,71,30.11,10.0,Calm,Calm,-,N/A,,Clear,0,2013-07-27 04:55:00